KC0PSR Weather Reports


time (UTC)temp
C
wind
direction
speed
KPH
gust
KPH
rain 1hr
cm
rain 24hr
cm
rain mn
cm
humidity
%
barometer
mb
20260906193106 27 136 14.5 24.1 0.00 0.00 0.00 83 1016.3
20260906192549 27 159 16.1 24.1 0.00 0.00 0.00 83 1016.2
20260906192050 27 153 14.5 24.1 0.00 0.00 0.00 83 1016.2
20260906191609 27 142 12.9 24.1 0.00 0.00 0.00 84 1016.1
20260906191053 27 144 14.5 22.5 0.00 0.00 0.00 84 1016.2
20260906190550 26 135 12.9 22.5 0.00 0.00 0.00 85 1016.1
20260906190108 26 140 11.3 22.5 0.00 0.00 0.00 86 1016.0
20260906185547 26 111 12.9 22.5 0.00 0.00 0.00 86 1016.0
20260906185050 26 81 12.9 22.5 0.00 0.00 0.00 87 1016.1
20260906184611 25 119 11.3 24.1 0.00 0.00 0.00 87 1016.0
20260906184047 25 135 14.5 24.1 0.00 0.00 0.00 87 1015.9
20260906183548 25 92 12.9 24.1 0.00 0.00 0.00 88 1016.0
20260906183105 25 119 11.3 22.5 0.00 0.00 0.00 88 1015.9
20260906182548 25 123 14.5 22.5 0.00 0.00 0.00 89 1016.0
20260906182048 25 122 8.0 16.1 0.00 0.00 0.00 89 1016.2
20260906181600 25 119 9.7 17.7 0.00 0.00 0.00 89 1016.3
20260906181047 24 111 9.7 17.7 0.00 0.00 0.00 90 1016.4
20260906180551 24 117 11.3 17.7 0.00 0.00 0.00 90 1016.5
20260906180101 24 126 9.7 19.3 0.00 0.00 0.00 90 1016.6
20260906175547 24 134 6.4 22.5 0.00 0.00 0.00 90 1016.8
20260906175046 24 125 9.7 22.5 0.00 0.00 0.00 90 1016.9
20260906174606 24 111 9.7 22.5 0.00 0.00 0.00 90 1017.0
20260906174048 24 115 9.7 16.1 0.00 0.00 0.00 90 1017.1
20260906173547 24 120 8.0 19.3 0.00 0.00 0.00 90 1017.1
20260906173103 23 150 11.3 19.3 0.00 0.00 0.00 90 1017.1
20260906172549 23 151 12.9 17.7 0.00 0.00 0.00 90 1017.1
20260906172050 24 142 11.3 19.3 0.00 0.00 0.00 90 1017.2
20260906171607 24 134 12.9 22.5 0.00 0.00 0.00 90 1017.1
20260906171048 24 126 12.9 22.5 0.00 0.00 0.00 90 1017.2
20260906170548 24 142 11.3 22.5 0.00 0.00 0.00 90 1017.0
20260906165548 23 117 11.3 19.3 0.00 0.00 0.00 90 1016.6
20260906165048 23 150 11.3 19.3 0.00 0.00 0.00 91 1016.5
20260906164602 23 125 11.3 19.3 0.00 0.00 0.00 91 1016.4
20260906164047 23 129 12.9 19.3 0.00 0.00 0.00 91 1016.7
20260906163547 23 139 11.3 17.7 0.00 0.00 0.00 91 1016.9
20260906163104 23 109 11.3 17.7 0.00 0.00 0.00 92 1016.9
20260906162552 23 126 9.7 17.7 0.00 0.00 0.00 92 1017.0
20260906162048 23 76 11.3 17.7 0.00 0.00 0.00 92 1016.9
20260906161604 23 90 9.7 19.3 0.00 0.00 0.00 93 1016.8
20260906161049 23 120 11.3 19.3 0.00 0.00 0.00 93 1016.8
20260906160550 23 98 8.0 19.3 0.00 0.00 0.00 93 1017.0
20260906160105 23 129 12.9 17.7 0.00 0.00 0.00 93 1017.0
20260906155549 23 109 9.7 17.7 0.00 0.00 0.00 94 1017.0
20260906155050 23 96 9.7 19.3 0.00 0.00 0.00 94 1016.8
20260906154607 23 134 11.3 19.3 0.00 0.00 0.00 94 1016.8
20260906154047 23 130 12.9 17.7 0.00 0.00 0.00 94 1016.7
20260906153550 23 123 11.3 16.1 0.00 0.00 0.00 94 1016.7
20260906153101 23 138 8.0 16.1 0.00 0.00 0.00 95 1016.8
20260906152552 23 112 11.3 16.1 0.00 0.00 0.00 95 1016.9
20260906152051 22 98 8.0 14.5 0.00 0.00 0.00 95 1016.8
20260906151603 22 113 9.7 14.5 0.00 0.00 0.00 95 1016.8
20260906151049 22 141 9.7 14.5 0.00 0.00 0.00 95 1016.8
20260906150549 22 126 8.0 16.1 0.00 0.00 0.00 95 1016.8
20260906150108 22 125 11.3 16.1 0.00 0.00 0.00 96 1016.6
20260906145549 22 107 8.0 16.1 0.00 0.00 0.00 96 1016.6
20260906145052 22 109 9.7 16.1 0.00 0.00 0.00 96 1016.5
20260906144622 22 130 11.3 16.1 0.00 0.00 0.00 96 1016.4
20260906144048 22 148 8.0 17.7 0.00 0.00 0.00 96 1016.2
20260906143549 22 128 9.7 17.7 0.00 0.00 0.00 96 1016.3
20260906143103 22 93 11.3 16.1 0.00 0.00 0.00 96 1016.4
20260906142549 22 121 9.7 19.3 0.00 0.00 0.00 96 1016.4
20260906142051 22 116 11.3 19.3 0.00 0.00 0.00 96 1016.5
20260906141630 22 161 8.0 16.1 0.00 0.00 0.00 96 1016.5
20260906141053 22 130 11.3 17.7 0.00 0.00 0.00 96 1016.4
20260906140549 22 122 9.7 17.7 0.00 0.00 0.00 96 1016.5
20260906140110 22 125 11.3 17.7 0.00 0.00 0.00 96 1016.6
20260906135550 22 99 8.0 17.7 0.00 0.00 0.00 96 1016.7
20260906135049 22 124 11.3 17.7 0.00 0.00 0.00 96 1016.7
20260906134606 22 119 8.0 16.1 0.00 0.00 0.00 96 1016.7
20260906134049 22 150 9.7 14.5 0.00 0.00 0.00 96 1016.8
20260906133548 22 117 8.0 14.5 0.00 0.00 0.00 96 1016.9
20260906133104 22 124 4.8 12.9 0.00 0.00 0.00 96 1017.0
20260906132553 22 116 4.8 12.9 0.00 0.00 0.00 96 1016.8
20260906132049 22 115 6.4 12.9 0.00 0.00 0.00 96 1016.9
20260906131603 22 140 6.4 12.9 0.00 0.00 0.00 95 1017.0
20260906131048 22 136 4.8 12.9 0.00 0.00 0.00 95 1017.1
20260906130550 22 156 4.8 12.9 0.00 0.00 0.00 95 1017.0
20260906130100 22 119 8.0 12.9 0.00 0.00 0.00 95 1016.9
20260906125550 22 136 8.0 12.9 0.00 0.00 0.00 95 1016.8
20260906125053 22 113 6.4 11.3 0.00 0.00 0.00 95 1016.8
20260906124604 22 126 4.8 11.3 0.00 0.00 0.00 95 1016.7
20260906124049 22 103 6.4 11.3 0.00 0.00 0.00 95 1016.6
20260906123550 22 125 3.2 9.7 0.00 0.00 0.00 95 1016.5
20260906123105 22 93 4.8 9.7 0.00 0.00 0.00 95 1016.6
20260906122548 21 88 4.8 11.3 0.00 0.00 0.00 95 1016.5
20260906122050 21 90 4.8 11.3 0.00 0.00 0.00 95 1016.4
20260906121606 21 109 4.8 11.3 0.00 0.00 0.00 95 1016.4
20260906121049 21 107 4.8 14.5 0.00 0.00 0.00 95 1016.3
20260906120550 21 121 4.8 14.5 0.00 0.00 0.00 95 1016.3
20260906120107 21 97 4.8 14.5 0.00 0.00 0.00 95 1016.2
20260906115549 21 127 4.8 14.5 0.00 0.00 0.00 95 1016.1
20260906115048 21 126 8.0 14.5 0.00 0.00 0.00 95 1016.0
20260906114604 21 124 6.4 14.5 0.00 0.00 0.00 95 1015.9
20260906114048 21 128 6.4 14.5 0.00 0.00 0.00 95 1016.1
20260906113545 21 122 6.4 16.1 0.00 0.00 0.00 95 1016.0
20260906113105 21 128 8.0 16.1 0.00 0.00 0.00 95 1016.1
20260906112546 21 139 8.0 14.5 0.00 0.00 0.00 95 1016.0
20260906112050 21 148 9.7 14.5 0.00 0.00 0.00 95 1016.0
20260906111604 21 104 6.4 12.9 0.00 0.00 0.00 95 1016.0
20260906111049 21 111 6.4 14.5 0.00 0.00 0.00 95 1016.0
20260906110550 21 116 9.7 14.5 0.00 0.00 0.00 95 1016.1
20260906110107 21 114 6.4 14.5 0.00 0.00 0.00 95 1016.3
20260906105551 21 136 8.0 14.5 0.00 0.00 0.00 95 1016.3
20260906105050 21 96 8.0 14.5 0.00 0.00 0.00 95 1016.2
20260906104628 21 152 9.7 14.5 0.00 0.00 0.00 94 1016.2
20260906104050 21 130 6.4 16.1 0.00 0.00 0.00 94 1016.2
20260906103548 21 108 6.4 16.1 0.00 0.00 0.00 94 1016.1
20260906103115 21 120 6.4 16.1 0.00 0.00 0.00 94 1016.2
20260906102549 21 119 8.0 14.5 0.00 0.00 0.00 94 1016.2
20260906102046 22 116 8.0 12.9 0.00 0.00 0.00 94 1016.2
20260906101603 22 130 6.4 17.7 0.00 0.00 0.00 94 1016.3
20260906101049 22 122 9.7 17.7 0.00 0.00 0.00 94 1016.3
20260906100546 22 111 9.7 16.1 0.00 0.00 0.00 94 1016.4
20260906100104 22 120 8.0 16.1 0.00 0.00 0.00 94 1016.4
20260906095549 22 111 8.0 16.1 0.00 0.00 0.00 94 1016.3
20260906095049 22 150 9.7 16.1 0.00 0.00 0.00 94 1016.4
20260906094641 22 120 9.7 16.1 0.00 0.00 0.00 94 1016.4
20260906094048 22 142 4.8 16.1 0.00 0.00 0.00 93 1016.4
20260906093550 22 144 8.0 16.1 0.00 0.00 0.00 93 1016.2
20260906093109 22 147 9.7 16.1 0.00 0.00 0.00 93 1016.2
20260906092550 22 125 8.0 16.1 0.00 0.00 0.00 93 1016.2
20260906092048 22 151 9.7 16.1 0.00 0.00 0.00 93 1016.2
20260906091613 22 134 8.0 16.1 0.00 0.00 0.00 93 1016.0
20260906091048 22 119 8.0 14.5 0.00 0.00 0.00 93 1016.0
20260906090548 22 139 6.4 14.5 0.00 0.00 0.00 93 1016.1
20260906090100 22 146 8.0 14.5 0.00 0.00 0.00 93 1016.2
20260906085548 22 151 9.7 14.5 0.00 0.00 0.00 93 1016.0
20260906085046 22 132 9.7 14.5 0.00 0.00 0.00 93 1016.2
20260906084601 22 142 9.7 14.5 0.00 0.00 0.00 93 1016.1
20260906084049 22 110 8.0 14.5 0.00 0.00 0.00 93 1016.0
20260906083549 22 108 6.4 17.7 0.00 0.00 0.00 93 1016.1
20260906083059 22 140 9.7 19.3 0.00 0.00 0.00 93 1016.1
20260906082550 22 130 9.7 19.3 0.00 0.00 0.00 93 1016.0
20260906082049 22 111 11.3 19.3 0.00 0.00 0.00 93 1015.9
20260906081600 22 86 8.0 17.7 0.00 0.00 0.00 93 1015.8
20260906081048 22 129 11.3 17.7 0.00 0.00 0.00 93 1015.8
20260906080549 22 111 9.7 19.3 0.00 0.00 0.00 93 1015.9
20260906075549 22 107 12.9 20.9 0.00 0.00 0.00 93 1015.9
20260906075049 22 127 11.3 20.9 0.00 0.00 0.00 93 1015.8
20260906074604 22 120 12.9 20.9 0.00 0.00 0.00 93 1015.7
20260906074048 22 111 11.3 20.9 0.00 0.00 0.00 93 1015.7
20260906073549 22 121 11.3 20.9 0.00 0.00 0.00 93 1015.6
20260906073100 22 140 12.9 20.9 0.00 0.00 0.00 93 1015.7
20260906072550 22 111 11.3 19.3 0.00 0.00 0.00 93 1015.7
20260906072049 22 142 11.3 19.3 0.00 0.00 0.00 93 1015.7
20260906071559 22 143 11.3 19.3 0.00 0.00 0.00 93 1015.9
20260906071052 22 105 9.7 19.3 0.00 0.00 0.00 94 1015.9
20260906070548 22 93 8.0 19.3 0.00 0.00 0.00 94 1015.9
20260906070101 22 107 8.0 19.3 0.00 0.00 0.00 94 1015.9
20260906065548 22 109 11.3 16.1 0.00 0.00 0.00 94 1016.0
20260906065049 22 90 11.3 20.9 0.00 0.00 0.00 94 1015.9
20260906064602 22 106 14.5 22.5 0.00 0.00 0.00 94 1015.9
20260906064049 22 78 12.9 22.5 0.00 0.00 0.00 94 1015.8
20260906063548 22 93 11.3 19.3 0.00 0.00 0.00 94 1015.9
20260906063100 22 92 9.7 19.3 0.00 0.00 0.00 94 1016.0
20260906062548 22 109 11.3 17.7 0.00 0.00 0.00 94 1015.9
20260906062051 22 121 8.0 14.5 0.00 0.00 0.00 93 1016.0
20260906061602 22 114 8.0 14.5 0.00 0.00 0.00 93 1015.9
20260906061049 22 119 9.7 14.5 0.00 0.00 0.00 93 1016.1
20260906060552 22 113 6.4 14.5 0.00 0.00 0.00 93 1016.2
20260906060104 22 106 9.7 12.9 0.00 0.00 0.00 93 1016.2
20260906055551 22 112 6.4 12.9 0.00 0.00 0.00 93 1016.2
20260906055048 22 105 6.4 12.9 0.00 0.00 0.00 93 1016.4
20260906054604 22 121 6.4 14.5 0.00 0.00 0.00 93 1016.4
20260906054049 22 82 6.4 14.5 0.00 0.00 0.00 93 1016.4
20260906053548 22 107 6.4 14.5 0.00 0.00 0.00 93 1016.3
20260906053107 22 97 4.8 14.5 0.00 0.00 0.00 93 1016.2
20260906052550 22 119 6.4 16.1 0.00 0.00 0.00 92 1016.4
20260906052049 22 109 8.0 16.1 0.00 0.00 0.00 92 1016.2
20260906051600 23 107 8.0 16.1 0.00 0.00 0.00 92 1016.2
20260906051051 22 105 8.0 16.1 0.00 0.00 0.00 92 1016.2
20260906050548 23 121 8.0 16.1 0.00 0.00 0.00 92 1016.3
20260906050125 23 101 6.4 14.5 0.00 0.00 0.00 92 1016.3
20260906045548 23 104 8.0 14.5 0.00 0.00 0.00 92 1016.3
20260906045047 23 110 6.4 14.5 0.00 0.00 0.00 92 1016.4
20260906044601 23 111 6.4 14.5 0.00 0.00 0.00 92 1016.4
20260906044049 23 104 8.0 14.5 0.00 0.00 0.00 91 1016.4
20260906043547 23 123 8.0 14.5 0.00 0.00 0.00 91 1016.3
20260906043059 23 75 6.4 14.5 0.00 0.00 0.00 91 1016.4
20260906042547 23 111 8.0 16.1 0.00 0.00 0.00 91 1016.4
20260906042046 23 122 8.0 16.1 0.00 0.00 0.00 91 1016.3
20260906041600 23 100 11.3 19.3 0.00 0.00 0.00 91 1016.3
20260906041046 23 97 11.3 19.3 0.00 0.00 0.00 91 1016.1
20260906040549 23 117 12.9 19.3 0.00 0.00 0.00 91 1015.9
20260906040139 23 96 11.3 19.3 0.00 0.00 0.00 90 1015.6
20260906035550 23 94 11.3 19.3 0.00 0.00 0.00 90 1015.8
20260906035048 23 89 11.3 17.7 0.00 0.00 0.00 90 1015.9
20260906034607 23 94 11.3 17.7 0.00 0.00 0.00 90 1015.9
20260906034046 23 95 8.0 14.5 0.00 0.00 0.00 89 1016.0
20260906033546 23 96 6.4 12.9 0.00 0.00 0.00 89 1016.0
20260906033101 23 126 6.4 14.5 0.00 0.00 0.00 89 1016.1
20260906032548 23 123 6.4 14.5 0.00 0.00 0.00 89 1016.1
20260906032048 23 102 4.8 14.5 0.00 0.00 0.00 89 1016.0
20260906031606 23 117 6.4 14.5 0.00 0.00 0.00 89 1016.0
20260906031051 23 104 4.8 14.5 0.00 0.00 0.00 88 1015.9
20260906030547 23 116 6.4 16.1 0.00 0.00 0.00 88 1015.7
20260906030109 23 123 8.0 16.1 0.00 0.00 0.00 88 1015.6
20260906025546 23 112 9.7 17.7 0.00 0.00 0.00 88 1015.4
20260906025047 23 126 9.7 17.7 0.00 0.00 0.00 87 1015.4
20260906024608 23 129 9.7 17.7 0.00 0.00 0.00 87 1015.5
20260906024049 23 111 11.3 17.7 0.00 0.00 0.00 87 1015.2
20260906023551 23 134 9.7 17.7 0.00 0.00 0.00 87 1015.4
20260906023102 23 107 9.7 16.1 0.00 0.00 0.00 87 1015.3
20260906022547 23 99 9.7 16.1 0.00 0.00 0.00 86 1015.3
20260906022050 23 88 9.7 16.1 0.00 0.00 0.00 86 1015.2
20260906021609 23 105 8.0 16.1 0.00 0.00 0.00 85 1015.2
20260906021049 24 103 8.0 14.5 0.00 0.00 0.00 85 1015.2
20260906020546 24 113 9.7 14.5 0.00 0.00 0.00 84 1015.2
20260906020107 24 80 8.0 12.9 0.00 0.00 0.00 84 1014.9
20260906015546 24 100 6.4 12.9 0.00 0.00 0.00 83 1015.1
20260906015047 24 138 6.4 12.9 0.00 0.00 0.00 83 1015.0
20260906014610 24 114 6.4 14.5 0.00 0.00 0.00 82 1015.0
20260906014048 25 109 8.0 14.5 0.00 0.00 0.00 81 1015.1
20260906013546 25 134 8.0 14.5 0.00 0.00 0.00 81 1015.0
20260906013103 25 105 6.4 14.5 0.00 0.00 0.00 80 1014.9
20260906012550 25 129 8.0 16.1 0.00 0.00 0.00 80 1014.9
20260906012047 25 112 9.7 16.1 0.00 0.00 0.00 79 1014.9
20260906011604 25 99 8.0 14.5 0.00 0.00 0.00 79 1014.7
20260906011051 25 113 8.0 14.5 0.00 0.00 0.00 78 1015.0
20260906010547 25 94 6.4 16.1 0.00 0.00 0.00 77 1014.9
20260906010109 26 121 8.0 16.1 0.00 0.00 0.00 76 1014.9
20260906005547 26 116 9.7 16.1 0.00 0.00 0.00 76 1014.9
20260906005048 26 117 9.7 20.9 0.00 0.00 0.00 76 1014.8
20260906004608 26 95 9.7 20.9 0.00 0.00 0.00 75 1014.9
20260906004046 26 113 8.0 19.3 0.00 0.00 0.00 75 1014.9
20260906003546 26 114 6.4 16.1 0.00 0.00 0.00 74 1014.8
20260906003105 26 120 8.0 17.7 0.00 0.00 0.00 74 1014.8
20260906002546 27 122 11.3 19.3 0.00 0.00 0.00 74 1014.7
20260906002052 27 101 11.3 19.3 0.00 0.00 0.00 74 1014.5
20260906001615 27 97 11.3 19.3 0.00 0.00 0.00 73 1014.5
20260906001047 27 109 8.0 19.3 0.00 0.00 0.00 72 1014.4
20260906000549 27 94 14.5 24.1 0.00 0.00 0.00 71 1014.3
20260905235546 27 109 14.5 24.1 0.00 0.00 0.00 70 1014.2
20260905235046 27 103 11.3 24.1 0.00 0.00 0.00 69 1014.0
20260905234602 27 140 17.7 27.4 0.00 0.00 0.00 69 1014.2
20260905234047 28 118 16.1 30.6 0.00 0.00 0.00 68 1014.2
20260905233548 28 127 17.7 30.6 0.00 0.00 0.00 67 1014.2
20260905233112 28 120 12.9 25.7 0.00 0.00 0.00 68 1014.2
20260905232547 28 103 12.9 25.7 0.00 0.00 0.00 69 1014.1
20260905232047 28 141 17.7 25.7 0.00 0.00 0.00 70 1014.2
20260905231603 28 105 16.1 22.5 0.00 0.00 0.00 69 1014.1
20260905231050 28 121 16.1 25.7 0.00 0.00 0.00 67 1014.2
20260905230546 28 137 16.1 25.7 0.00 0.00 0.00 68 1014.2
20260905230115 29 93 12.9 25.7 0.00 0.00 0.00 69 1014.1
20260905225547 29 132 12.9 27.4 0.00 0.00 0.00 68 1014.0
20260905225047 29 119 17.7 27.4 0.00 0.00 0.00 66 1014.1
20260905224610 29 107 12.9 27.4 0.00 0.00 0.00 64 1014.1
20260905224046 29 115 16.1 27.4 0.00 0.00 0.00 64 1014.1
20260905223547 29 113 16.1 25.7 0.00 0.00 0.00 65 1014.1
20260905223106 29 108 16.1 27.4 0.00 0.00 0.00 65 1014.0
20260905222548 29 86 16.1 27.4 0.00 0.00 0.00 64 1013.8
20260905222046 30 88 9.7 24.1 0.00 0.00 0.00 65 1013.8
20260905221606 30 138 16.1 25.7 0.00 0.00 0.00 63 1013.8
20260905221046 30 111 16.1 25.7 0.00 0.00 0.00 63 1013.8
20260905220549 30 119 16.1 25.7 0.00 0.00 0.00 62 1013.8
20260905220106 30 115 16.1 24.1 0.00 0.00 0.00 62 1013.9
20260905215547 30 96 14.5 24.1 0.00 0.00 0.00 61 1013.9
20260905215045 30 134 12.9 24.1 0.00 0.00 0.00 62 1013.9
20260905214606 30 92 16.1 24.1 0.00 0.00 0.00 61 1014.0
20260905214047 30 84 16.1 24.1 0.00 0.00 0.00 61 1014.2
20260905213547 30 132 14.5 22.5 0.00 0.00 0.00 61 1014.2
20260905213109 30 92 11.3 22.5 0.00 0.00 0.00 61 1014.2
20260905212551 30 112 14.5 22.5 0.00 0.00 0.00 61 1014.2
20260905212051 30 105 12.9 22.5 0.00 0.00 0.00 61 1014.3
20260905211558 30 108 11.3 20.9 0.00 0.00 0.00 61 1014.2
20260905211051 30 94 9.7 20.9 0.00 0.00 0.00 62 1014.3
20260905210551 30 114 11.3 22.5 0.00 0.00 0.00 62 1014.4
20260905210116 30 90 12.9 22.5 0.00 0.00 0.00 62 1014.3
20260905205550 30 73 9.7 22.5 0.00 0.00 0.00 62 1014.2
20260905205051 30 62 12.9 22.5 0.00 0.00 0.00 62 1014.2
20260905204605 30 74 12.9 24.1 0.00 0.00 0.00 61 1014.1
20260905204053 30 82 16.1 24.1 0.00 0.00 0.00 61 1014.3
20260905203549 30 92 16.1 29.0 0.00 0.00 0.00 60 1014.2
20260905203101 30 92 12.9 29.0 0.00 0.00 0.00 60 1014.3
20260905202549 30 63 12.9 20.9 0.00 0.00 0.00 60 1014.3
20260905202051 30 79 11.3 20.9 0.00 0.00 0.00 61 1014.3
20260905201608 30 77 12.9 20.9 0.00 0.00 0.00 60 1014.4
20260905201050 30 101 14.5 20.9 0.00 0.00 0.00 59 1014.5
20260905200551 30 115 14.5 22.5 0.00 0.00 0.00 58 1014.4
20260905200140 30 109 14.5 25.7 0.00 0.00 0.00 57 1014.3
20260905195550 30 119 11.3 25.7 0.00 0.00 0.00 57 1014.4
20260905195047 30 118 12.9 20.9 0.00 0.00 0.00 58 1014.3
20260905194614 30 120 12.9 20.9 0.00 0.00 0.00 58 1014.2
20260905194048 30 126 14.5 24.1 0.00 0.00 0.00 57 1014.4
20260905193548 30 123 14.5 24.1 0.00 0.00 0.00 58 1014.5